[[{"header":{"parameterUnit":"m.s-1","parameterCategory":2,"la1":30.2992,"la2":30.254,"lo1":-89.0895,"lo2":-89.0443,"dy":0.0025,"dx":0.0025,"nx":19,"ny":19,"refTime":"2026-03-22T03:00:00:Z","depth":"0","parameterNumber":2,"parameterNumberName":"U-component_of_CURRENTS"},"data":[0,0,0,0.0685,0.0686,0.0771,0.0772,0.0917,0.0918,0,0,0,0,0,0,0,0,0,0,0,0.066,0.066,0.0685,0.0686,0.0771,0.0772,0.0917,0.0918,0,0,0,0,0,0,0,0,0,0,0,0.066,0.066,0.0661,0.0687,0.0771,0.0772,0.0916,0.0846,0,0,0,0,0,0,0,0,0,0,0.076,0.0754,0.066,0.0661,0.0687,0.0771,0.0772,0.0842,0.085,0.0885,0,0.0896,0,0.0906,0.0928,0.0928,0,0,0,0.0697,0.0748,0.0741,0.0661,0.0688,0.0771,0.0736,0.0846,0.0856,0.0896,0.0898,0.0903,0.0908,0.0929,0.0929,0.1052,0.1052,0,0,0.0692,0.0707,0.0735,0.0747,0.0708,0.0733,0.0738,0.0852,0.0879,0.0899,0.0907,0.091,0.093,0.0931,0.1051,0.1052,0,0,0,0.0672,0.0704,0.0695,0.0741,0.0751,0.0735,0.0742,0.0874,0.0863,0.0908,0.0912,0.093,0.0932,0.1051,0.1051,0.0993,0,0,0,0.0669,0.069,0.0693,0.0707,0.0749,0.0816,0.0762,0.0855,0.0868,0.0911,0.0931,0.0934,0.1051,0.1051,0.0994,0.095,0,0,0,0.0656,0.069,0.0692,0.0707,0.0735,0.0813,0.0811,0.0858,0.087,0.0928,0.0934,0.1051,0.1051,0.0995,0.0953,0.0942,0,0,0,0.0678,0.0726,0.0693,0.0763,0.0734,0.079,0.081,0.0886,0.0939,0.0931,0.1051,0.1051,0.0995,0.0954,0.0943,0.0895,0.0884,0,0,0.075,0.0736,0.0777,0.0749,0.0775,0.0779,0.0829,0.0908,0.0956,0.1017,0.102,0.0994,0.0953,0.0942,0.0932,0.0919,0,0,0,0.0809,0.0817,0.0831,0.0838,0.0856,0.0819,0.089,0.0924,0.0983,0.0987,0.1023,0.1,0.0994,0.0969,0.0961,0.1019,0.1054,0.1054,0.1054,0.083,0.084,0.0863,0.0848,0.0871,0.0873,0.0886,0.0934,0.0991,0.1011,0.0975,0.0955,0.0929,0.0922,0.0983,0.1011,0.1011,0.1011,0.1011,0.0839,0.0841,0.0826,0.085,0.0799,0.0826,0.0856,0.0887,0.0924,0.0963,0.0961,0.0937,0.0908,0.0978,0.1008,0.1008,0.1009,0.1009,0.1009,0.079,0.0802,0.0793,0.0769,0.0753,0.0761,0.0768,0.0804,0.0863,0.0858,0.0851,0.0851,0.0893,0.086,0.086,0.0859,0.0859,0.0859,0.0859,0.075,0.0745,0.0722,0.0702,0.0689,0.0683,0.0711,0.0735,0.0744,0.0777,0.0777,0.0896,0.0909,0.0892,0.0855,0.0856,0.0856,0.0857,0.0857,0.0753,0.0724,0.0686,0.0659,0.0639,0.0599,0.0639,0.0635,0.0653,0.0642,0.0775,0.0752,0.0765,0.0773,0.0754,0.0684,0.0684,0.0683,0.0683,0.0738,0.0729,0.0675,0.0635,0.0599,0.058,0.0516,0.0499,0.0594,0.0659,0.0739,0.0772,0.0777,0.0794,0.0802,0.0786,0.0725,0.0726,0.0726,0.0724,0.0713,0.0665,0.063,0.0602,0.0548,0.0434,0.0368,0.0559,0.0737,0.083,0.0828,0.0891,0.0893,0.0934,0.094,0.0919,0,0]},{"header":{"parameterUnit":"m.s-1","parameterCategory":2,"la1":30.2992,"la2":30.254,"lo1":-89.0895,"lo2":-89.0443,"dy":0.0025,"dx":0.0025,"nx":19,"ny":19,"refTime":"2026-03-22T03:00:00:Z","depth":"0","parameterNumber":3,"parameterNumberName":"V-component_of_CURRENTS"},"data":[0,0,0,-0.0159,-0.0159,-0.011,-0.0109,0.0013,0.0014,0,0,0,0,0,0,0,0,0,0,0,-0.0168,-0.0167,-0.0159,-0.0159,-0.011,-0.0109,0.0013,0.0014,0,0,0,0,0,0,0,0,0,0,0,-0.0168,-0.0167,-0.0167,-0.0159,-0.011,-0.0109,0.0013,-0.0036,0,0,0,0,0,0,0,0,0,0,-0.009,-0.0126,-0.0167,-0.0167,-0.0158,-0.011,-0.0109,-0.0039,-0.0033,0.0004,0,0.0009,0,0.0007,0.0023,0.0023,0,0,0,-0.0146,-0.0131,-0.0106,-0.0167,-0.0158,-0.011,-0.0128,-0.0036,-0.0029,0.0012,0.0011,0.0015,0.0009,0.0023,0.0024,0.0102,0.0101,0,0,-0.0149,-0.0166,-0.0111,-0.0102,-0.0147,-0.013,-0.0127,-0.0033,-0.0031,0.0011,0.0017,0.0011,0.0024,0.0025,0.0102,0.0101,0,0,0,-0.0165,-0.0169,-0.0147,-0.0106,-0.0106,-0.0129,-0.0125,-0.0035,-0.0025,0.0018,0.0013,0.0025,0.0026,0.0102,0.0102,0.0111,0,0,0,-0.0166,-0.0179,-0.0148,-0.016,-0.0109,-0.0083,-0.013,-0.0031,-0.0022,0.0012,0.0025,0.0028,0.0102,0.0102,0.0111,0.0136,0,0,0,-0.017,-0.018,-0.0172,-0.016,-0.0145,-0.0085,-0.007,-0.003,-0.0025,0.0023,0.0028,0.0102,0.0102,0.0111,0.0135,0.0158,0,0,0,-0.0191,-0.0168,-0.0172,-0.0147,-0.0145,-0.008,-0.007,-0.0024,0.0018,0.0026,0.0102,0.0102,0.0111,0.0134,0.0157,0.0193,0.02,0,0,-0.0169,-0.0166,-0.0148,-0.015,-0.0086,-0.0086,-0.0032,0.0016,0.0024,0.0078,0.0079,0.0111,0.0135,0.0158,0.0181,0.0188,0,0,0,-0.0145,-0.0126,-0.0106,-0.0079,-0.0041,-0.001,0.002,0.0033,0.0062,0.0044,0.0104,0.0119,0.0133,0.0153,0.0158,0.0187,0.0101,0.0101,0.0101,-0.0102,-0.009,-0.0052,-0.0027,0.0005,0.0046,0.0072,0.0088,0.0092,0.0089,0.0121,0.0139,0.0158,0.0163,0.0192,0.0103,0.0103,0.0103,0.0103,-0.0046,-0.0037,-0.0022,0.0019,0.0043,0.008,0.0116,0.0115,0.0149,0.0128,0.0141,0.0154,0.017,0.0198,0.0103,0.0103,0.0103,0.0103,0.0103,-0.0021,-0.0025,0.0001,0.0034,0.0069,0.0094,0.0139,0.0158,0.0164,0.0182,0.0204,0.0204,0.0237,0.0181,0.0181,0.0181,0.0181,0.0181,0.0182,-0.0023,-0.0003,0.0028,0.0054,0.0074,0.0108,0.016,0.0189,0.0226,0.0234,0.0234,0.0249,0.0163,0.0169,0.0185,0.0184,0.0184,0.0183,0.0183,-0.0012,-0.001,0.0037,0.0067,0.0123,0.0166,0.0207,0.0271,0.0297,0.0318,0.0336,0.0264,0.0272,0.0267,0.0275,0.0318,0.0318,0.0318,0.0318,-0.0022,-0.0012,0.0051,0.011,0.0165,0.0203,0.0291,0.0349,0.0395,0.0425,0.0406,0.0391,0.0384,0.0397,0.039,0.04,0.0473,0.0473,0.0473,-0.0017,0.0,0.0047,0.0112,0.0185,0.0246,0.0325,0.0433,0.0501,0.048,0.0441,0.0435,0.041,0.0397,0.0413,0.04,0.0415,0,0]}],[{"header":{"parameterUnit":"m.s-1","parameterCategory":2,"la1":30.2992,"la2":30.254,"lo1":-89.0895,"lo2":-89.0443,"dy":0.0025,"dx":0.0025,"nx":19,"ny":19,"refTime":"2026-03-22T03:00:00:Z","depth":"2","parameterNumber":2,"parameterNumberName":"U-component_of_CURRENTS"},"data":[0,0,0,-0.0106,-0.0104,0.0006,0.0007,0.0212,0.0214,0,0,0,0,0,0,0,0,0,0,0,-0.0093,-0.0092,-0.0106,-0.0104,0.0006,0.0007,0.0212,0.0214,0,0,0,0,0,0,0,0,0,0,0,-0.0094,-0.0092,-0.009,-0.0104,0.0006,0.0007,0.0211,0.0119,0,0,0,0,0,0,0,0,0,0,0.0007,-0.0059,-0.0092,-0.009,-0.0103,0.0005,0.0007,0.0114,0.0125,0.0172,0,0.0212,0,0.0186,0.0226,0.0227,0,0,0,-0.0076,-0.0068,0.0007,-0.009,-0.0103,0.0005,-0.0036,0.012,0.0132,0.0186,0.0215,0.022,0.0189,0.0228,0.0229,0.0491,0.0492,0,0,-0.0082,-0.012,-0.0001,0.0016,-0.0042,-0.004,-0.0033,0.0127,0.0127,0.0215,0.0224,0.0193,0.0229,0.023,0.049,0.0491,0,0,0,-0.0118,-0.0124,-0.0055,0.0009,0.0006,-0.0037,-0.0029,0.012,0.0158,0.0226,0.0195,0.023,0.0232,0.0488,0.049,0.0425,0,0,0,-0.0121,-0.0147,-0.0057,-0.0085,0.0003,0.0037,-0.004,0.0149,0.0163,0.0194,0.023,0.0234,0.0486,0.0489,0.0423,0.0409,0,0,0,-0.0104,-0.0149,-0.0114,-0.0086,-0.0052,0.0034,0.0079,0.0152,0.0143,0.0227,0.0235,0.0485,0.0489,0.0421,0.0407,0.0386,0,0,0,-0.0175,-0.0102,-0.0115,-0.006,-0.0053,0.0098,0.0078,0.0189,0.0272,0.0231,0.0487,0.049,0.0421,0.0406,0.0385,0.0344,0.0343,0,0,-0.0115,-0.0097,-0.0063,-0.0072,0.0078,0.0083,0.0182,0.0274,0.0338,0.0439,0.0446,0.0424,0.0407,0.0385,0.0545,0.0536,0,0,0,-0.0067,-0.0038,0.0008,0.007,0.0178,0.0198,0.0287,0.0307,0.0403,0.0393,0.0514,0.0508,0.0493,0.0471,0.0467,0.0507,0.0506,0.0506,0.0505,-0.0003,0.0034,0.01,0.0151,0.0215,0.032,0.036,0.0415,0.0468,0.05,0.0519,0.0553,0.0535,0.0529,0.0589,0.0589,0.0589,0.0588,0.0588,0.0092,0.0117,0.0114,0.0195,0.0237,0.0337,0.0367,0.0412,0.0497,0.0518,0.0506,0.0487,0.0519,0.0585,0.0586,0.0586,0.0586,0.0587,0.0587,0.011,0.0131,0.0147,0.0188,0.0247,0.0298,0.0363,0.043,0.046,0.0497,0.0483,0.0484,0.0456,0.0485,0.0485,0.0485,0.0485,0.0485,0.0485,0.0167,0.0168,0.0172,0.0168,0.02,0.0259,0.0355,0.0408,0.0413,0.0447,0.0447,0.0519,0.0522,0.0456,0.0483,0.0483,0.0483,0.0484,0.0484,0.0164,0.0188,0.0183,0.0182,0.023,0.0233,0.0294,0.035,0.037,0.0366,0.0414,0.0416,0.0431,0.0436,0.0372,0.0376,0.0376,0.0376,0.0376,0.0186,0.018,0.0236,0.0221,0.022,0.0241,0.0234,0.0205,0.0241,0.0219,0.0226,0.0227,0.0235,0.024,0.025,0.0182,0.0136,0.0136,0.0135,0.0159,0.0223,0.0212,0.0242,0.0249,0.0249,0.0177,0.0114,0.0108,0.0122,0.015,0.0366,0.0388,0.0393,0.0419,0.0428,0.0326,0,0]},{"header":{"parameterUnit":"m.s-1","parameterCategory":2,"la1":30.2992,"la2":30.254,"lo1":-89.0895,"lo2":-89.0443,"dy":0.0025,"dx":0.0025,"nx":19,"ny":19,"refTime":"2026-03-22T03:00:00:Z","depth":"2","parameterNumber":3,"parameterNumberName":"V-component_of_CURRENTS"},"data":[0,0,0,-0.0254,-0.0255,-0.0265,-0.0265,-0.0129,-0.0127,0,0,0,0,0,0,0,0,0,0,0,-0.0259,-0.0259,-0.0254,-0.0255,-0.0265,-0.0265,-0.0129,-0.0127,0,0,0,0,0,0,0,0,0,0,0,-0.0258,-0.0259,-0.026,-0.0255,-0.0265,-0.0265,-0.0129,-0.0155,0,0,0,0,0,0,0,0,0,0,-0.0162,-0.0204,-0.0259,-0.026,-0.0256,-0.0265,-0.0265,-0.0158,-0.0153,-0.0087,0,-0.0112,0,-0.0117,-0.0116,-0.0116,0,0,0,-0.0238,-0.0209,-0.0202,-0.026,-0.0256,-0.0265,-0.0256,-0.0156,-0.0151,-0.0081,-0.0111,-0.0106,-0.0115,-0.0115,-0.0115,-0.0013,-0.0013,0,0,-0.0238,-0.0258,-0.0207,-0.02,-0.0285,-0.0256,-0.0256,-0.0155,-0.0162,-0.011,-0.0104,-0.0112,-0.0114,-0.0113,-0.0013,-0.0013,0,0,0,-0.0248,-0.0258,-0.0257,-0.0205,-0.0219,-0.0256,-0.0257,-0.0167,-0.0165,-0.0102,-0.0111,-0.0113,-0.0111,-0.0013,-0.0013,-0.0009,0,0,0,-0.0247,-0.0264,-0.0257,-0.0268,-0.0223,-0.0216,-0.0272,-0.0173,-0.0162,-0.0111,-0.0113,-0.011,-0.0013,-0.0013,-0.0009,0.0027,0,0,0,-0.0254,-0.0265,-0.0273,-0.027,-0.028,-0.0218,-0.0211,-0.0171,-0.0166,-0.0116,-0.0109,-0.0012,-0.0013,-0.0009,0.0026,0.0045,0,0,0,-0.0261,-0.0266,-0.0275,-0.027,-0.028,-0.0228,-0.0213,-0.0166,-0.0124,-0.0112,-0.0013,-0.0013,-0.0009,0.0026,0.0044,0.004,0.0043,0,0,-0.0258,-0.0267,-0.0255,-0.0262,-0.0207,-0.0224,-0.0171,-0.0117,-0.0107,-0.0032,-0.003,-0.0009,0.0026,0.0045,0.0024,0.0028,0,0,0,-0.0245,-0.0233,-0.0217,-0.0198,-0.0172,-0.0142,-0.0112,-0.0107,-0.0074,-0.0089,-0.0016,0.0007,0.0019,0.0014,0.0017,-0.0014,-0.0014,-0.0014,-0.0014,-0.0205,-0.0191,-0.0161,-0.0134,-0.0111,-0.0075,-0.0055,-0.0046,-0.0039,-0.0044,0.0004,0.0017,0.0009,0.0012,-0.0022,-0.0022,-0.0022,-0.0022,-0.0022,-0.0153,-0.0146,-0.0123,-0.0089,-0.0063,-0.0025,-0.0001,-0.0006,0.0026,0.0004,0.0014,0.001,0.0016,-0.0022,-0.0022,-0.0022,-0.0022,-0.0022,-0.0022,-0.0129,-0.0138,-0.0104,-0.0068,-0.003,-0.0006,0.003,0.0046,0.0044,0.0064,0.0057,0.0056,0.0044,0.0058,0.0058,0.0058,0.0058,0.0058,0.0058,-0.014,-0.0115,-0.0079,-0.0049,-0.0028,0.0007,0.0058,0.0078,0.0093,0.0089,0.0088,0.0045,0.0042,0.0049,0.0062,0.0061,0.0061,0.0061,0.006,-0.013,-0.0131,-0.0077,-0.0045,0.0016,0.0053,0.0091,0.0136,0.0155,0.0159,0.0098,0.0096,0.0105,0.0101,0.0109,0.0138,0.0138,0.0138,0.0138,-0.0144,-0.0134,-0.0065,-0.0002,0.0049,0.0083,0.0135,0.0123,0.012,0.0082,0.0084,0.0043,0.0042,0.0045,0.0043,0.0049,0.0061,0.0061,0.0061,-0.0126,-0.0113,-0.0058,0.0005,0.0066,0.0121,0.0135,0.009,0.0039,0.0055,0.0045,0.0138,0.0082,0.0078,0.0085,0.0081,0.0091,0,0]}],[{"header":{"parameterUnit":"m.s-1","parameterCategory":2,"la1":30.2992,"la2":30.254,"lo1":-89.0895,"lo2":-89.0443,"dy":0.0025,"dx":0.0025,"nx":19,"ny":19,"refTime":"2026-03-22T03:00:00:Z","depth":"4","parameterNumber":2,"parameterNumberName":"U-component_of_CURRENTS"},"data":[0,0,0,-0.0801,-0.0803,-0.0898,-0.0899,-0.1183,-0.1186,0,0,0,0,0,0,0,0,0,0,0,-0.0782,-0.0782,-0.0801,-0.0803,-0.0898,-0.0899,-0.1183,-0.1186,0,0,0,0,0,0,0,0,0,0,0,-0.0781,-0.0782,-0.0783,-0.0803,-0.0898,-0.0899,-0.1182,-0.1074,0,0,0,0,0,0,0,0,0,0,-0.0962,-0.0893,-0.0782,-0.0783,-0.0804,-0.0898,-0.0899,-0.1067,-0.108,-0.1182,0,-0.1195,0,-0.119,-0.1207,-0.1208,0,0,0,-0.0819,-0.0881,-0.0926,-0.0783,-0.0804,-0.0897,-0.086,-0.1073,-0.1089,-0.1201,-0.1198,-0.1208,-0.1195,-0.1209,-0.1211,-0.145,-0.145,0,0,-0.0813,-0.0788,-0.0914,-0.0935,-0.0832,-0.0856,-0.0862,-0.1081,-0.1092,-0.1199,-0.1213,-0.12,-0.1212,-0.1214,-0.145,-0.145,0,0,0,-0.0788,-0.0784,-0.082,-0.0925,-0.0925,-0.0859,-0.0866,-0.1082,-0.1099,-0.1216,-0.1203,-0.1213,-0.1217,-0.1449,-0.145,-0.1533,0,0,0,-0.0785,-0.0769,-0.0818,-0.0802,-0.092,-0.0976,-0.0862,-0.1084,-0.1107,-0.1202,-0.1213,-0.122,-0.1449,-0.1449,-0.153,-0.156,0,0,0,-0.0777,-0.0767,-0.0782,-0.0801,-0.0835,-0.0972,-0.1,-0.1088,-0.11,-0.1209,-0.1221,-0.1449,-0.1449,-0.1527,-0.1555,-0.1504,0,0,0,-0.0743,-0.0774,-0.0782,-0.081,-0.0834,-0.0888,-0.0998,-0.1095,-0.1186,-0.1215,-0.1449,-0.145,-0.1527,-0.1553,-0.1503,-0.1136,0,0,0,-0.0767,-0.0776,-0.0793,-0.0802,-0.0841,-0.0876,-0.0959,-0.1152,-0.1228,-0.1392,-0.1396,-0.1531,-0.1555,-0.1504,-0.1171,0,0,0,0,-0.079,-0.0783,-0.079,-0.0823,-0.0874,-0.0944,-0.1069,-0.1154,-0.1359,-0.1279,-0.1518,-0.153,-0.1495,-0.1277,-0.1452,-0.1452,-0.1452,-0.1452,-0.1452,-0.0761,-0.0799,-0.0816,-0.0854,-0.0903,-0.1035,-0.1138,-0.1287,-0.1361,-0.1467,-0.159,-0.1597,-0.1372,-0.1581,-0.1581,-0.1582,-0.1582,-0.1582,-0.1583,-0.0748,-0.0766,-0.0824,-0.0877,-0.0992,-0.1122,-0.13,-0.1415,-0.158,-0.1624,-0.1585,-0.1372,-0.159,-0.1589,-0.1588,-0.1587,-0.1586,-0.1586,-0.1585,-0.0723,-0.0743,-0.0833,-0.0935,-0.1115,-0.1248,-0.139,-0.1598,-0.1669,-0.1707,-0.1401,-0.1619,-0.1617,-0.1673,-0.1673,-0.1673,-0.1673,-0.1673,-0.1673,-0.0703,-0.0783,-0.0838,-0.0963,-0.1095,-0.1246,-0.1479,-0.1466,-0.1547,-0.1436,-0.1715,-0.1625,-0.1623,-0.1619,-0.1672,-0.1672,-0.1672,-0.1672,-0.1672,-0.0668,-0.0768,-0.0782,-0.0888,-0.0988,-0.1106,-0.1316,-0.1187,-0.1099,-0.0969,-0.1248,-0.1269,-0.1184,-0.1191,-0.117,-0.1091,-0.1086,-0.1082,0,-0.0666,-0.0689,-0.0734,-0.077,-0.0749,-0.095,-0.0758,-0.0701,-0.0811,-0.0858,-0.106,-0.1386,-0.1397,-0.1309,-0.1308,-0.1284,0,0,0,-0.0654,-0.0645,-0.0643,-0.0621,-0.0659,-0.0541,-0.0661,-0.0606,-0.0878,-0.0589,-0.0966,-0.0997,-0.1166,-0.1669,-0.1588,-0.1585,-0.1573,0,0]},{"header":{"parameterUnit":"m.s-1","parameterCategory":2,"la1":30.2992,"la2":30.254,"lo1":-89.0895,"lo2":-89.0443,"dy":0.0025,"dx":0.0025,"nx":19,"ny":19,"refTime":"2026-03-22T03:00:00:Z","depth":"4","parameterNumber":3,"parameterNumberName":"V-component_of_CURRENTS"},"data":[0,0,0,-0.0003,-0.0004,-0.0095,-0.0096,-0.0025,-0.0023,0,0,0,0,0,0,0,0,0,0,0,0.0024,0.0024,-0.0003,-0.0004,-0.0095,-0.0096,-0.0025,-0.0023,0,0,0,0,0,0,0,0,0,0,0,0.0025,0.0024,0.0024,-0.0005,-0.0095,-0.0096,-0.0025,-0.0007,0,0,0,0,0,0,0,0,0,0,0.0057,0.0045,0.0024,0.0024,-0.0005,-0.0095,-0.0096,-0.0008,-0.0008,0.0075,0,0.0061,0,0.0035,-0.0013,-0.0012,0,0,0,-0.0019,0.0044,0.004,0.0023,-0.0006,-0.0095,-0.0058,-0.001,-0.0009,0.0076,0.0061,0.0063,0.0036,-0.0012,-0.0011,0.0085,0.0085,0,0,-0.0014,-0.0007,0.0039,0.004,-0.0024,-0.0055,-0.0061,-0.0011,-0.0014,0.0061,0.0063,0.0037,-0.0011,-0.001,0.0086,0.0085,0,0,0,0.001,-0.0004,-0.0014,0.0039,0.0015,-0.0058,-0.0064,-0.0018,-0.0016,0.0064,0.0038,-0.001,-0.0008,0.0086,0.0085,0.0088,0,0,0,0.0013,0.0012,-0.0012,-0.0011,0.0013,-0.0032,-0.0072,-0.002,-0.0016,0.0037,-0.001,-0.0007,0.0086,0.0086,0.0089,0.0058,0,0,0,0.0027,0.0013,0.0007,-0.001,-0.0041,-0.0034,-0.0033,-0.0022,-0.0029,-0.0012,-0.0006,0.0086,0.0086,0.0089,0.0059,0.0102,0,0,0,0.0031,-0.0004,0.0007,-0.0045,-0.004,-0.0102,-0.0034,-0.0062,-0.0057,-0.0009,0.0086,0.0085,0.0089,0.006,0.0102,-0.0007,0,0,0,-0.0014,-0.001,-0.0043,-0.0035,-0.0111,-0.0091,-0.0145,-0.0094,-0.0024,0.0081,0.0082,0.0089,0.0059,0.0102,-0.002,0,0,0,0,-0.0059,-0.0075,-0.01,-0.014,-0.0171,-0.0195,-0.016,-0.0115,-0.0016,-0.0019,0.0083,0.0063,0.0091,0.0027,0.0084,0.0084,0.0084,0.0084,0.0084,-0.0098,-0.0125,-0.0182,-0.0211,-0.0251,-0.0251,-0.0232,-0.015,-0.0059,-0.0005,0.0063,0.0086,0.0017,0.0076,0.0076,0.0076,0.0076,0.0076,0.0076,-0.0156,-0.0187,-0.0225,-0.0283,-0.0305,-0.0326,-0.0251,-0.017,-0.0019,0.0026,0.0057,0.0028,0.0077,0.0077,0.0076,0.0076,0.0076,0.0076,0.0076,-0.0176,-0.0193,-0.0226,-0.0306,-0.0345,-0.0338,-0.0294,-0.0165,-0.0026,0.0028,0.0027,0.0091,0.0097,0.0097,0.0097,0.0097,0.0097,0.0097,0.0097,-0.0174,-0.021,-0.0259,-0.0324,-0.037,-0.0357,-0.028,-0.023,-0.0093,-0.0007,0.0063,0.0093,0.0093,0.0098,0.0098,0.0098,0.0098,0.0098,0.0098,-0.0199,-0.021,-0.0284,-0.0337,-0.0415,-0.0402,-0.0355,-0.0282,-0.0208,-0.0162,-0.0019,-0.0014,-0.0022,-0.0019,-0.0019,-0.0052,-0.0054,-0.0055,0,-0.021,-0.0218,-0.0313,-0.0389,-0.0438,-0.0426,-0.0397,-0.036,-0.0221,-0.0152,-0.0174,-0.0009,-0.0005,-0.0015,-0.0015,-0.0016,0,0,0,-0.0229,-0.0247,-0.0315,-0.0376,-0.0445,-0.0392,-0.0368,-0.0335,-0.0216,-0.0304,-0.009,-0.0081,-0.0177,0.0101,0.0102,0.0101,0.0109,0,0]}]]